Location: Unspecified
(0.0000°N, 0.0000°E)
Time: 00:25:59
(UTC+00:00)

Vanguard 1 - Pass Details

Date: 08 December 2017
Orbit: 650 x 3833 km, 34.2° (Epoch: 20 July)

Event Time Altitude Azimuth Distance (km) Brightness Sun altitude
Rises 11:41:26 0° 284° (WNW) 7,422 14.5 67.1°
Reaches altitude 10° 11:52:00 10° 309° (NW) 5,600 13.9 67.2°
Maximum altitude 11:57:34 12° 330° (NNW) 4,859 13.6 67.2°
Drops below altitude 10° 12:02:15 10° 352° (N) 4,544 13.3 67.1°
Sets 12:08:30 0° 21° (NNE) 4,789 13.4 66.9°
